User: anonymous   Login
Location: ??????
(55.6130°N, 37.7882°E)
Time: 05:14:48
(UTC+00:00)
Language:

Cosmos 192 - Orbit

View from above orbital plane
View from above orbital plane
View from above satellite
View from above satellite

Ground track
Ground track

The orbit data is extracted from the following two-line orbital elements,

1 03047U 67116A   24164.89241115  .00000586  00000-0  13802-3 0  9999
2 03047  74.0126 332.5251 0008844 315.2694  44.7755 14.56565519991661
Epoch (UTC): 12 June 2024 21:25:04
Eccentricity: 0.0008844
inclination: 74.0126°
perigee height: 698 km
apogee height: 710 km
right ascension of ascending node: 332.5251°
argument of perigee: 315.2694°
revolutions per day: 14.56565519
mean anomaly at epoch: 44.7755°
orbit number at epoch: 99166

The dashed part of the orbit path shows where the satellite is in the earth's shadow,  

DLR